Regional Weather Roundup
Issued by NWS Spokane, WA

Home | Current Version | Previous Version | Text Only | Print | Product List | Glossary On
Versions: 1 2 3 4 5 6 7 8 9 10 11 12 13 14 15 16 17 18 19 20 21 22 23 24 25 26 27 28 29 30 31 32 33 34 35 36 37 38 39 40 41 42 43 44 45 46 47 48 49 50
495
NZUS01 KOTX 250125
RWROTX

Eastern Washington/Northern Idaho Roundup
National Weather Service, Spokane WA
500 PM PST TUE JAN 24 2017

Note: "fair" indicated few or no clouds below 12,000 feet with no
significant weather and/or obstructions to visibility.

...Northeast Washington and Northern Idaho Panhandle...

CITY           SKY/WX    TMP DP  RH WIND       PRES   REMARKS
Spokane Intl   CLOUDY    30  27  88 SW7       30.06R WCI  23
Spokane Downto CLOUDY    33  30  88 SW5       30.09R WCI  29
Coeur d Alene  LGT SNOW  32  29  88 SW6       30.07R FOG     WCI  26
Deer Park      CLOUDY    31  27  85 S6        30.07R WCI  25
Sandpoint        N/A     32  30  93 CALM      30.06R
Bonners Ferry  CLOUDY    32  25  74 CALM      30.04R

...Southeast Washington and southern Idaho Panhandle...

CITY           SKY/WX    TMP DP  RH WIND       PRES   REMARKS
Walla Walla    CLOUDY    31  28  89 CALM      30.12R FOG
Pullman/Moscow CLOUDY    29  26  89 E6        30.08R WCI  23
Lewiston       CLOUDY    34  28  79 E3        30.11R
Lowell           N/A     33  29  85 CALM      30.11R
Grangeville    CLOUDY    27  25  93 CALM      30.03R

...Columbia Basin...

CITY           SKY/WX    TMP DP  RH WIND       PRES   REMARKS
Ephrata        CLOUDY    31  26  82 CALM      30.12R
Moses Lake     CLOUDY    31  27  85 CALM      30.13R
Pasco          CLOUDY    33  30  88 CALM      30.18R
Richland       CLOUDY    32  30  92 CALM      30.19R
Hermiston      CLOUDY    32  30  92 S5        30.15R WCI  27
Pendleton      CLOUDY    31  30  96 NW3       30.11R FOG

...East Slopes Cascades...

CITY           SKY/WX    TMP DP  RH WIND       PRES   REMARKS
The Dalles     CLEAR     34  30  85 CALM      30.15R
Yakima         MOCLDY    27  24  89 E5        30.13R WCI  22
Ellensburg     FOG       23  20  88 CALM      30.08R VSB 1/4
Stampede Pass  CLOUDY    27  27 100 VRB3      30.02S FOG
Wenatchee      CLOUDY    30  28  92 E9        30.11R WCI  22
Omak           CLOUDY    33  28  81 S3        30.11R
Sunnyside      CLOUDY    26  25  96 CALM      30.17R FOG

...Southern British Columbia...

CITY           SKY/WX    TMP DP  RH WIND       PRES   REMARKS
Penticton      CLOUDY    34  32  93 SW3       30.10R
Castlegar      CLOUDY    36  30  80 N5        30.06R
Cranbrook      MOCLDY    18  16  93 CALM      30.01R
Osoyoos          N/A     36  32  87 S1          N/A
Creston          N/A     30  25  80 NW2         N/A

...Western Montana...

CITY           SKY/WX    TMP DP  RH WIND       PRES   REMARKS
Kalispell      CLOUDY    23  17  78 CALM      30.02R
Missoula       CLOUDY    25  18  74 CALM      30.00R

...Neighboring Cities...

CITY           SKY/WX    TMP DP  RH WIND       PRES   REMARKS
Seattle        MOCLDY    39  35  86 CALM      30.16R
Portland       CLOUDY    38  35  89 W7        30.19S FOG
Boise          CLEAR     30  23  75 W8        29.97R WCI  22
Great Falls    CLOUDY    24  17  74 W3        29.93R
Calgary        MOCLDY    25  18  74 N7        29.91R WCI  17



USA.gov is the U.S. government's official web portal to all federal, state and local government web resources and services.